Погода в Витебске

Погода в Витебске : погода сейчас, прогноз погоды и архив. Всё, что Вы хотите узнать о погоде в Витебске!

Поиск расширенной информации на нашем сайте:

Полезная информация:

Другие новости

Новости СМИ2

Главная страница сайта

Новости сайта

03.07.2017

Напоминаем, что на нашем специализированном сайте Метеоцентр.Азия вы можете получить высокодетализированные автоматические прогнозы погоды по пунктам России, СНГ и мира в авиационном формате (включающие направление и скорость ветра, видимость, явления погоды, количество и форму облачности, нижнюю и верхнюю границу облачности).

Рекомендуем:

Погода в Витебске - сегодня

Время (UTC), дата Ветер
(°,м/с) 
Видим.   Явления Облачность Т
(°С)
Тd
(°С)
f(%) Тe
(°С)
Pmin
(гПа)
dP
(гПа)
Po
(мм)
O2
(г/м3)
Тmin Tmax R s Состояние
почвы
09 15.09.19 220 (ЮЗ) 29000 м    9/9 570 м 
[Sc]
+11.9 +8.4 79 +11  1016.6  -2.4  747  287           
12 15.09.19 220 (ЮЗ) 3{10}  9000 м  слаб. ливневой дождь  10/10 660 м кучево-дожд. 
[Cb cap]
+11.8 +9.9 88 +13  1013.6  -2.9  744  286      0.6     
15 15.09.19 210 (ЮЗ) 3-10{12}  35000 м  {ливн. осадки}  10/5 600 м средняя 
[Sc|Ac As]
+11.3 +8.9 85 +11  1008.9  -4.7  741  285         
18 15.09.19 230 (ЮЗ) 5-10{12}  35000 м  в посл. час ливневой дождь  10/5 600 м кучево-дожд., средняя 
[Cb cap|As op]
+12.3 +7.6 73 +11  1006  -2.7  739  284    +12.6     
21 15.09.19 220 (ЮЗ) 4{13}  30000 м    9/9 1260 м 
[Sc]
+13 +7.2 68 +13  1003.3  -2.6  737  282           
00 16.09.19 230 (ЮЗ) 3{11}  35000 м  в посл. час ливневой дождь  10/10 800 м кучево-дожд. 
[Cb cap]
+11.5 +9.1 85 +11  1002.3  -1.1  736  283      0.2     
03 16.09.19 230 (ЮЗ) 29000 м    8/4 600 м средняя 
[Sc|Ac trans]
+11 +8.9 87 +11  1001.6  -0.7  736  283      0.4     
06 16.09.19 250 (З) 4-11{12}  27000 м    8/5 600 м средняя 
[Sc|Ac trans]
+11.7 +8.5 81 +11  1000.9  -0.7  735  282  +10.6    0.4     
09 16.09.19 260 (З) 4-10{12}  24000 м  {ливн. осадки}  8/8 960 м средняя 
[Cu med, cong|Ac trans]
+14.2 +8.8 70 +14  1001.2  0.5  735  280      0.0     
12 16.09.19 260 (З) 3{12}  35000 м  в посл. час ливневой дождь  6/6 1000 м кучево-дожд. 
[Cb cap]
+13.8 +10.7 82 +16  1000.9  -0.3  735  280         
15 16.09.19 240 (ЮЗ) 3{11}  35000 м  в посл. час ливневой дождь  8/6 1050 м кучево-дожд., средняя 
[Cb cap|Ac trans]
+12.8 +8.8 77 +13  1001.4  0.4  736  282         
18 16.09.19 240 (ЮЗ) 30000 м  {ливн. осадки}  3/3 1000 м 
[Sc]
+11 +8.8 86 +11  1001.8  0.3  736  283    +15     
21 16.09.19 240 (ЮЗ) 30000 м    6/6 1350 м 
[Sc]
+9.5 +7 84 +9  1001.9  -0.1  736  285           
00 17.09.19 230 (ЮЗ) 35000 м    ясно 
+7.8 +6 88 +7  1001.6  -0.4  735  287           
03 17.09.19 250 (З) 30000 м    9/9 1260 м 
[Sc]
+7.4 +6 91 +7  1001  -0.6  735  287           
06 17.09.19 250 (З) 2{10}  30000 м  {ливн. осадки}  9/8 400 м средняя 
[St|Ac trans]
+8.9 +6.9 87 +9  1000.9  735  286  +6.9    0.0     
09 17.09.19 280 (З) 27000 м  в посл. час ливневой дождь  9/9 720 м 
[Sc]
+11.1 +7.1 76 +11  1001.2  0.5  735  283      0.0     
12 17.09.19 270 (З) 2{10}  30000 м  в посл. час ливневой дождь  9/9 600 м 
[Sc]
+12.1 +8.4 78 +12  1001  -0.1  735  282      0.2     
15 17.09.19 250 (З) 2{10}  35000 м  в посл. час ливневой дождь  9/8 700 м средняя 
[Sc|Ac trans]
+11.2 +7.5 78 +11  1000.8  -0.3  735  283      0.4     
18 17.09.19 200 (Ю) 1{11}  35000 м  {ливн. осадки}  3/0 средняя 
[Ac trans]
+8.3 +6.8 90 +9  1000.2  -0.8  734  286    +12.9     
21 17.09.19 230 (ЮЗ) 35000 м    8/6 720 м средняя 
[Sc|Ac trans]
+7.5 +5.9 90 +7  998.7  -1.5  733  287           
00 18.09.19 200 (Ю) 35000 м  {ливн. осадки}  9/9 900 м 
[Sc]
+7.7 +6.9 95 +9  997.2  -1.5  732  286      0.0     
03 18.09.19 240 (ЮЗ) 30000 м  в посл. час дождь  10/10 240 м 
[St]
+7.5 +7.4 99 +8  996.3  -0.9  731  286         
06 18.09.19 270 (З) 3200 м  слаб. морось{дождь}  10/10 210 м 
[St]
+6.9 +6.5 97 +8  996.8  0.4  732  286  +6.8       
09 18.09.19 300 (СЗ) 4300 м  слаб. морось  10/10 270 м 
[St]
+7.9 +6.7 92 +9  998.3  1.6  733  286      0.0     
Время (UTC), дата Ветер
(°,м/с) 
Видим.   Явления Облачность Т
(°С)
Тd
(°С)
f(%) Тe
(°С)
Pmin
(гПа)
dP
(гПа)
Po
(мм)
O2
(г/м3)
Тmin Tmax R s Состояние
почвы

Для получения пояснительной информации подведите курсор к названию столбца.

ПОГОДА в Витебске - архив

Всё, что Вы хотите узнать о погоде в Витебске - удобно и подробно!

Выберите нужную дату (начиная с 1 января 2018* года) и нажмите кнопку "Найти".
Будут отображены архивные сводки погоды по пункту Витебск, начиная с указанной даты.


Отображать данные в формате CSV (для использования в таблицах Excel)


Внимание! Наш архив погоды предназначен исключительно для личного некоммерческого использования в познавательных целях. Если Вам необходимы официальные справки о состоянии погоды (для производственных, юридических, коммерческих и т.п. целей), обращайтесь в органы Росгидромета.

*Примечание: данная дата относится к архиву по метеостанциям СССР (Россия, СНГ, Балтия).
Архив по метеостанциям Зарубежной Европы и Азии (кроме Китая) хранится 10 дней, по другим регионам земного шара (Китай, Африка, Америка, Австралия, Океания) - 1 день.

Витебск - район местоположения метеостанции


Название, широта, долгота, высота метеостанции:
Витебск (город) 55.1°ш. 30.3°д. 170 м над ур. моря [Беларусь]

Дополнительная информация

В oтличие oт бoльшинства пoгoдных сайтoв мы публикуем пoдрoбную метеoинфoрмацию в детальнoм прoфессиoнальнoм фoрмате.

Характеристики температуры и влажнoсти вoздуха измеряются на высoте 2 м в тени вдали oт зданий и деревьев.
Скoрoсть ветра измеряется на высoте 10 м (на урoвне рoста челoвека скoрoсть ветра ниже в 1.5-2 раза). Если метеoстанция нахoдится в гoрoде или в лесу, тo скoрoсть ветра занижена на 2-4 м/с пo сравнению с oткрытым местoм. Скoрoсть ветра над акватoриями крупных рек и oзёр, а также на вершинах хoлмoв на 2-5 м/с выше, чем в oбычных услoвиях.
Атмoсфернoе давление в разных тoчках местнoсти мoжет значительнo oтличаться oт давления на метеoстанции, в зависимoсти oт услoвий рельефа (при пoдъёме на 10 м давление пoнижается примернo на 1 мм рт.ст.).